www.pogodaiklimat.ru

Погода и климат >> Архив погоды >> Россия >> Кабардино-Балкария >> Прохладный


ПОГОДА в Прохладный

  • Прогноз погоды в Прохладный
  • Монитор погоды в Прохладный

АРХИВ ПОГОДЫ в Прохладный

Время (UTC), дата Ветер
(напр.,м/с)
 
Видим.   Явления Облачность Т
(С)
Тd
(С)
f
(%)
Тe
(С)
Тes
(С)
Комфортность P
(гПа)
Po
(гПа)
Тmin
(С)
Tmax
(С)
R
(мм)
R24
(мм)
S
(см)
00 14.08 штиль 0 20 км ясно +15.0 +7.2 60 +15 +15 1016.9 993.2
03 14.08 ЮЗ 1 20 км ясно +13.5 +10.6 83 +14 +14 1017.9 994.0 +12.7
06 14.08 ЮВ 2 20 км ясно +23.3 +10.5 44 +25 +35 комфорт 1016.7 993.6
09 14.08 СВ 4 20 км ясно +30.2 +4.8 20 +28 +40 жарко 1014.4 991.9
12 14.08 СВ 3 20 км ясно +32.1 +4.0 17 +30 +38 жарко 1012.7 990.3
15 14.08 СВ 2 20 км ясно +29.4 +4.6 21 +28 +28 жарко 1012.3 989.8 +32.3
18 14.08 В 2 20 км ясно +23.2 +4.6 30 +23 +23 комфорт 1013.7 990.6
21 14.08 СВ 1 20 км ясно +17.8 +8.2 53 +19 +19 1013.7 990.3
00 15.08 СВ 1 20 км ясно +15.9 +8.8 63 +17 +17 1013.3 989.7
03 15.08 В 1 20 км ясно +13.5 +9.8 78 +14 +14 1013.3 989.5 +12.5
06 15.08 СВ 1 20 км ясно +22.4 +11.6 50 +25 +36 комфорт 1012.5 989.5
09 15.08 СВ 3 20 км ясно +28.8 +14.7 42 +31 +45 жарко 1011.0 988.5
12 15.08 СВ 4 20 км ясно +32.3 +13.6 32 +33 +40 жарко 1008.8 986.6
15 15.08 СВ 3 20 км ясно +29.1 +13.6 39 +31 +31 жарко 1008.5 986.1 +32.3
18 15.08 СВ 3 20 км ясно +23.3 +11.8 48 +26 +26 жарко 1009.7 986.8
21 15.08 СВ 2 20 км ясно +19.8 +16.2 80 +23 +23 комфорт 1009.6 986.5
00 16.08 СВ 1 4000 м дымка 10/10 600 м
[Sc]
+21.1 +19.3 89 +26 +26 душно 1008.9 985.9
03 16.08 Ю 1 4000 м дымка 10/10 600 м
[Sc]
+19.4 +17.9 91 +23 +23 комфорт 1009.4 986.3 +19.3
06 16.08 Ю 1 20 км 10/10 600 м
[Sc]
+22.6 +18.4 77 +28 +28 душно 1009.4 986.5 +18.9
09 16.08 В 1 20 км 8/8 600 м
[Cu med, cong]
+27.6 +18.1 56 +32 +36 очень
душно
1007.8 985.3
12 16.08 СВ 2 20 км 3/3 600 м
[Cu med, cong]
+31.1 +17.0 43 +35 +42 очень
душно
1005.2 983.0
15 16.08 штиль 0 20 км 3/1 1000 м
[Sc Ac lent]
+30.2 +16.2 43 +33 +34 душно 1004.5 982.2 +32.2
18 16.08 Ю 1 20 км 10/10 600 м
[Cb cap]
+26.9 +18.4 60 +32 +32 очень
душно
1006.0 983.5
21 16.08 СВ 2 20 км 10/10 600 м
[Cb cap]
+23.7 +17.3 67 +28 +28 душно 1005.8 983.1
00 17.08 СВ 1 20 км 10/10 600 м
[Cb cap]
+22.0 +17.1 74 +26 +26 душно 1007.0 984.1
03 17.08 С 1 20 км 8/6 600 м
[Sc Ac lent]
+21.3 +17.6 79 +25 +25 комфорт 1006.2 983.3 +21.1
06 17.08 В 3 20 км в посл. час ливневой дождь 10/10 600 м
[Cb cap]
+22.3 +18.6 80 +28 +28 душно 1006.9 984.1
09 17.08 С 3 20 км 8/4 600 м
[Sc Ac lent]
+29.7 +17.7 49 +34 +38 очень
душно
1008.0 985.7
12 17.08 СЗ 2 20 км 9/9 600 м
[Cb cap]
+30.7 +17.3 45 +35 +36 очень
душно
1007.8 985.6
15 17.08 СЗ 2 20 км гроза без осадков 10/10 600 м
[Cb cap]
+28.9 +17.8 51 +33 +33 очень
душно
1008.0 985.7 +32.3 0.0
18 17.08 ЮЗ 2 4000 м в посл. час гроза {ливн. осадки} 10/10 600 м
[Cb cap]
+22.0 +21.1 95 +28 +28 душно 1010.4 987.5
21 17.08 З 1 4000 м дымка 9/8 600 м
[Sc Ac lent]
+21.8 +21.4 98 +28 +28 душно 1009.8 986.9
00 18.08 СЗ 1 4000 м дымка 10/10 600 м
[Cb cap]
+21.4 +21.1 98 +27 +27 душно 1008.4 985.5
03 18.08 ЮЗ 2 4000 м дымка 4/3 600 м
[Sc Ac lent]
+20.5 +20.2 98 +26 +26 душно 1008.3 985.3 +20.5 3
06 18.08 СЗ 2 20 км 10/10 600 м
[Sc]
+23.3 +21.0 87 +31 +31 очень
душно
1008.4 985.6 +20.2
09 18.08 Ю 2 20 км 10/0
[]
+27.0 +20.3 67 +33 +41 очень
душно
1007.4 985.0
12 18.08 З 3 20 км 3/0
[Ci fib]
+31.0 +19.1 49 +36 +44 очень
душно
1006.6 984.4
15 18.08 ЮЗ 3 20 км 3/0
[Ci fib]
+30.0 +17.9 48 +34 +35 очень
душно
1007.0 984.8 +31.6
18 18.08 З 1 20 км 3/0
[Ci fib]
+26.5 +18.5 61 +31 +31 душно 1009.0 986.4
21 18.08 ЮЗ 1 20 км 4/0
[Cs]
+23.6 +19.6 78 +29 +29 душно 1010.4 987.6
00 19.08 ЮЗ 1 20 км 3/0
[Ci fib]
+22.7 +18.8 79 +29 +29 очень
душно
1011.1 988.2
03 19.08 ЮЗ 1 н/о н/о +21.8 +18.7 83 +27 +27 душно 1012.8 989.8 +21.7
06 19.08 СЗ 2 20 км 3/0
[Ci fib]
+28.0 +17.6 53 +32 +41 душно 1013.3 990.7
09 19.08 СЗ 2 20 км 1/0
[Ci fib]
+32.7 +14.6 34 +34 +50 очень
жарко
1012.6 990.4
12 19.08 СЗ 2 20 км 1/0
[Ci fib]
+35.8 +13.4 26 +36 +45 очень
жарко
1012.1 990.1
15 19.08 Ю 2 20 км 3/0
[Ci sp]
+32.4 +16.6 39 +36 +36 очень
душно
1012.4 990.2 +35.8
18 19.08 Ю 1 20 км 1/0
[Ci fib]
+26.9 +18.4 60 +32 +32 очень
душно
1014.3 991.6
21 19.08 ЮЗ 1 20 км ясно +23.6 +19.4 77 +29 +29 душно 1014.5 991.6
00 20.08 ЮЗ 1 20 км 4/0
[Ac lent Ci sp]
+22.5 +18.9 80 +28 +28 душно 1014.6 991.6
03 20.08 ЮЗ 1 20 км 6/0
[Ac lent Ci fib]
+21.9 +18.0 79 +27 +27 душно 1015.5 992.4 +21.3
06 20.08 З 2 20 км 1/0
[Ci fib]
+29.5 +14.0 39 +31 +40 жарко 1015.5 992.9
09 20.08 Ю 2 20 км 6/0
[Cc]
+33.2 +15.1 34 +35 +49 душно 1014.3 992.1
12 20.08 СВ 2 20 км 1/0
[Ci fib]
+36.3 +15.9 30 +38 +47 очень
душно
1012.8 990.8
15 20.08 Ю 2 20 км 3/0
[Ci sp]
+34.4 +16.6 35 +37 +38 очень
душно
1013.1 991.0 +36.7
18 20.08 В 2 20 км ясно +28.8 +13.1 38 +30 +30 жарко 1013.9 991.3

 

Местоположение метеостанции Прохладный (Кабардино-Балкария, Россия): широта 43.75 долгота 44.05 высота над уровнем моря 200 м.

В архиве по умолчанию представлена погода в Прохладный за последнюю неделю. Архивные данные за месяц целиком и за предыдущие месяцы, начиная с января 2011 года, Вы можете получить, выбрав интересующий диапазон дат из раскрывающегося списка и нажав кнопку "Ввод!".


*Определитесь, кто Вы:
робот инопланетянин человек

Внимание! Время в таблицах - всемирное. Для получения местного времени необходимо прибавить поправку, которая равна 3 ч.

Смотрите также архив погоды в соседних городах и на ближайших метеорологических станциях:

Погода в Нальчике (Кабардино-Балкария, Россия) (42 км)
Погода в Моздоке (Северная Осетия, Россия) (50 км)
Погода в Георгиевске (Ставропольский край, Россия) (64 км)
Погода в Зеленокумске (Ставропольский край, Россия) (77 км)
Погода в Алагире (Северная Осетия, Россия) (77 км)
Погода в Минеральных Водах (Ставропольский край, Россия) (92 км)
Погода в Назрани (Ингушетия, Россия) (93 км)
Погода в Владикавказе (Северная Осетия, Россия) (95 км)
Погода в Тырныаузе (Кабардино-Балкария, Россия) (100 км)
Погода в Рощино (Ставропольский край, Россия) (102 км)

Пояснения к столбцам:

Ветер - указаны скорость ветра в м/с - средняя за 10 мин, порывы в срок и между сроками (в фигурных скобках) и направление, откуда дует ветер: С - северный, СВ - северо-восточный, В - восточный, ЮВ - юго-восточный, Ю - южный, ЮЗ - юго-западный, З - западный, СЗ - северо-западный.
Видимость - горизонтальная дальность видимости в метрах или километрах. При видимости от 1 до 10 км при отсутствии осадков обычно наблюдается дымка, при ухудшении видимости до 1 км и менее - туман. В сухую погоду видимость может ухудшаться дымом, пылью или мглою.
Явления - указаны атмосферные явления, наблюдавшиеся в срок или в последний час перед сроком; фигурными скобками обозначены явления, наблюдавшиеся между сроками (за 1-3 часа до срока); квадратными скобками обозначены град или гололедные отложения с указанием их диаметра в мм.
Облачность - указаны через наклонную черту общая и нижняя облачность в баллах и высота нижней границы облаков в метрах; квадратными скобками обозначены формы облаков: Ci - перистые, Cs - перисто-слоистые, Cc - перисто-кучевые, Ac - высококучевые, As - высокослоистые, Sc - слоисто-кучевые, Ns - слоисто-дождевые, Cu - кучевые, Cb - кучево-дождевые. Подробнее классификацию облаков см. в Атласе облаков (PDF).
T - Температура воздуха - температура, измеренная на высоте 2 м над землей.
Td - Температура точки росы - температура, при понижении до которой содержащийся в воздухе водяной пар достигнет насыщения.
f - Относительная влажность воздуха - влажноcть воздуха, измеренная на высоте 2 м над землей.
Te - Эффективная температура - температура, которую ощущает одетый по сезону человек в тени. Характеристика душности погоды. При расчете учитывается влияние влажности воздуха и скорости ветра на теплоощущения человека.
Tes - Эффективная температура на солнце - температура, которую ощущает человек, с поправкой на солнечный нагрев. Характеристика знойности погоды. Зависит от высоты солнца над горизонтом, облачности и скорости ветра. Ночью, в пасмурную погоду, а также при ветре 12 м/с и более поправка равна нулю.
P - Атмосферное давление - приведенное к уровню моря атмосферное давление.
Po - Атмосферное давление - измеренное на уровне метеостанции атмосферное давление.
Tmin - Минимальная температура - минимум температуры воздуха на высоте 2 м над землей.
Tmax - Максимальная температура - максимум температуры воздуха на высоте 2 м над землей.
R - Количество осадков - Количество выпавших осадков за период времени, мм. При наведении курсора мыши на число - период времени, за который выпало указанное количество осадков.
R24 - Количество осадков - Количество выпавших осадков за 24 часа, мм.
S - Снежный покров - Высота снежного покрова, см. При наведении курсора мыши на число - состояние снежного покрова и степень покрытия местности в баллах.